[[{"header":{"parameterUnit":"m.s-1","parameterCategory":2,"la1":30.2992,"la2":30.254,"lo1":-89.0895,"lo2":-89.0443,"dy":0.0025,"dx":0.0025,"nx":19,"ny":19,"refTime":"2026-03-26T03:00:00:Z","depth":"0","parameterNumber":2,"parameterNumberName":"U-component_of_CURRENTS"},"data":[0,0,0,-0.2373,-0.2376,-0.2456,-0.2456,-0.2453,-0.2453,0,0,0,0,0,0,0,0,0,0,0,-0.2332,-0.2333,-0.2373,-0.2376,-0.2456,-0.2456,-0.2453,-0.2453,0,0,0,0,0,0,0,0,0,0,0,-0.2332,-0.2333,-0.2334,-0.2376,-0.2456,-0.2456,-0.2453,-0.2415,0,0,0,0,0,0,0,0,0,0,-0.2349,-0.2322,-0.2333,-0.2334,-0.2377,-0.2456,-0.2456,-0.2414,-0.2417,-0.2391,0,-0.2409,0,-0.2441,-0.2451,-0.2451,0,0,0,-0.2361,-0.232,-0.2356,-0.2334,-0.2378,-0.2456,-0.2415,-0.2417,-0.242,-0.2395,-0.241,-0.2411,-0.2441,-0.2451,-0.2451,-0.2469,-0.247,0,0,-0.2356,-0.2329,-0.2354,-0.2359,-0.2404,-0.2413,-0.2418,-0.242,-0.2414,-0.241,-0.2412,-0.2441,-0.2451,-0.2451,-0.2469,-0.2469,0,0,0,-0.2354,-0.2326,-0.2364,-0.2357,-0.2387,-0.2416,-0.2421,-0.2414,-0.2431,-0.2412,-0.2441,-0.2451,-0.2451,-0.2469,-0.2469,-0.2596,0,0,0,-0.235,-0.2327,-0.2362,-0.2344,-0.2387,-0.2414,-0.2415,-0.243,-0.2433,-0.2441,-0.2451,-0.2451,-0.2468,-0.2469,-0.2592,-0.2701,0,0,0,-0.2328,-0.2324,-0.2339,-0.2343,-0.2388,-0.2416,-0.2432,-0.2432,-0.245,-0.2451,-0.2451,-0.2468,-0.2469,-0.2588,-0.2692,-0.2762,0,0,0,-0.229,-0.2322,-0.2338,-0.2395,-0.2388,-0.2473,-0.2433,-0.2479,-0.2488,-0.2451,-0.2468,-0.2469,-0.2587,-0.2687,-0.2756,-0.2443,-0.2443,0,0,-0.2314,-0.2323,-0.2366,-0.2384,-0.248,-0.2461,-0.2549,-0.2538,-0.2485,-0.2456,-0.2458,-0.2593,-0.2691,-0.2761,-0.2489,-0.2487,0,0,0,-0.2366,-0.239,-0.2425,-0.2485,-0.2542,-0.2612,-0.2591,-0.2598,-0.2594,-0.2497,-0.2573,-0.2632,-0.2672,-0.2469,-0.2469,-0.2367,-0.2473,-0.2473,-0.2473,-0.2321,-0.2398,-0.2475,-0.2566,-0.2629,-0.2703,-0.2774,-0.2767,-0.2664,-0.2682,-0.2719,-0.2844,-0.2625,-0.2622,-0.2522,-0.267,-0.267,-0.2671,-0.2671,-0.2358,-0.2405,-0.2521,-0.2616,-0.2716,-0.278,-0.2912,-0.29,-0.2964,-0.284,-0.2869,-0.2592,-0.2628,-0.2521,-0.2679,-0.2677,-0.2676,-0.2676,-0.2675,-0.2301,-0.2341,-0.2413,-0.2579,-0.2728,-0.2848,-0.2965,-0.3085,-0.3086,-0.3158,-0.285,-0.2842,-0.2764,-0.3109,-0.311,-0.311,-0.3111,-0.3112,-0.3112,-0.2194,-0.2286,-0.2357,-0.256,-0.2653,-0.2809,-0.3009,-0.3019,-0.3019,-0.3,-0.2995,-0.2764,-0.2977,-0.2979,-0.3125,-0.3122,-0.3121,-0.312,-0.3119,-0.2111,-0.2148,-0.2265,-0.2353,-0.2577,-0.2585,-0.2793,-0.2727,-0.2825,-0.2756,-0.267,-0.29,-0.2838,-0.283,-0.2826,-0.2926,-0.2926,-0.2926,-0.2926,-0.2013,-0.206,-0.2155,-0.2265,-0.2383,-0.2473,-0.2244,-0.2267,-0.2376,-0.2404,-0.2544,-0.2335,-0.2347,-0.2249,-0.2255,-0.2236,-0.2184,-0.2184,-0.2183,-0.1943,-0.1995,-0.2007,-0.2146,-0.2274,-0.2195,-0.1918,-0.187,-0.2033,-0.2161,-0.2489,-0.252,-0.2226,-0.2252,-0.2097,-0.2113,-0.2081,0,0]},{"header":{"parameterUnit":"m.s-1","parameterCategory":2,"la1":30.2992,"la2":30.254,"lo1":-89.0895,"lo2":-89.0443,"dy":0.0025,"dx":0.0025,"nx":19,"ny":19,"refTime":"2026-03-26T03:00:00:Z","depth":"0","parameterNumber":3,"parameterNumberName":"V-component_of_CURRENTS"},"data":[0,0,0,-0.0352,-0.0347,-0.0103,-0.0102,0.0129,0.013,0,0,0,0,0,0,0,0,0,0,0,-0.0447,-0.0446,-0.0352,-0.0346,-0.0103,-0.0102,0.0128,0.013,0,0,0,0,0,0,0,0,0,0,0,-0.0448,-0.0446,-0.0444,-0.0345,-0.0103,-0.0102,0.0128,-0.0035,0,0,0,0,0,0,0,0,0,0,-0.026,-0.0367,-0.0446,-0.0444,-0.0344,-0.0104,-0.0102,-0.0041,-0.0024,-0.0006,0,0.0029,0,0.0088,0.0144,0.0144,0,0,0,-0.0342,-0.0381,-0.0285,-0.0444,-0.0342,-0.0104,-0.0212,-0.0031,-0.0012,0.0016,0.0033,0.0042,0.0092,0.0145,0.0146,0.0255,0.0255,0,0,-0.0355,-0.0429,-0.0298,-0.0274,-0.0283,-0.0219,-0.0204,-0.0019,-0.0022,0.0034,0.0049,0.0095,0.0146,0.0148,0.0256,0.0255,0,0,0,-0.0397,-0.044,-0.0346,-0.0284,-0.0231,-0.0212,-0.0195,-0.003,0.001,0.0052,0.0098,0.0147,0.015,0.0256,0.0256,0.0158,0,0,0,-0.0404,-0.0462,-0.0353,-0.0399,-0.0235,-0.0123,-0.0211,-0.0003,0.002,0.0097,0.0147,0.0152,0.0256,0.0256,0.0161,0.0116,0,0,0,-0.0457,-0.0469,-0.0435,-0.0403,-0.0293,-0.0124,-0.0074,0.0004,0.0048,0.0145,0.0152,0.0257,0.0256,0.0164,0.0121,0.015,0,0,0,-0.0548,-0.0523,-0.0438,-0.0404,-0.0296,-0.0168,-0.0074,0.0017,0.009,0.0148,0.0256,0.0256,0.0165,0.0125,0.0153,0.0133,0.0121,0,0,-0.0567,-0.0528,-0.0506,-0.0423,-0.0338,-0.0201,-0.013,0.0003,0.0086,0.0192,0.0196,0.016,0.0122,0.0151,0.0094,0.0083,0,0,0,-0.0546,-0.0533,-0.0494,-0.0423,-0.0302,-0.0213,-0.0066,-0.0008,0.009,0.013,0.0174,0.0153,0.0175,0.0168,0.0159,0.0421,0.0253,0.0253,0.0253,-0.0674,-0.0591,-0.0564,-0.0452,-0.0377,-0.0215,-0.0143,-0.0036,0.0049,0.0064,0.0084,0.0051,0.0039,0.0034,0.0302,0.0098,0.0098,0.0098,0.0098,-0.0731,-0.0716,-0.063,-0.0577,-0.0462,-0.039,-0.0216,-0.0144,-0.003,0.0012,0.0039,0.0076,0.0018,0.0309,0.0091,0.0093,0.0093,0.0094,0.0094,-0.0829,-0.0808,-0.0773,-0.0718,-0.0653,-0.0508,-0.0441,-0.0286,-0.0131,-0.0101,-0.0036,-0.0034,0.0219,-0.0068,-0.0068,-0.0068,-0.0068,-0.0068,-0.0069,-0.0942,-0.0898,-0.0929,-0.0862,-0.0848,-0.0771,-0.0567,-0.0478,-0.0279,-0.0137,-0.0136,0.0238,0.0002,0.0005,-0.007,-0.007,-0.007,-0.007,-0.0069,-0.102,-0.1034,-0.1092,-0.1103,-0.1058,-0.1013,-0.0823,-0.0593,-0.0444,-0.0356,0.017,-0.0123,-0.0078,-0.007,-0.0067,-0.0156,-0.0156,-0.0156,-0.0156,-0.1104,-0.1105,-0.1217,-0.1269,-0.1261,-0.1124,-0.1002,-0.0704,-0.0162,0.0165,0.0285,0.0339,0.0331,0.0407,0.0404,0.042,0.0457,0.0458,0.046,-0.1157,-0.1203,-0.1299,-0.1352,-0.1344,-0.1228,-0.1079,-0.0691,0.0124,0.0516,0.0658,0.0632,0.0746,0.0712,0.0855,0.083,0.0865,0,0]}],[{"header":{"parameterUnit":"m.s-1","parameterCategory":2,"la1":30.2992,"la2":30.254,"lo1":-89.0895,"lo2":-89.0443,"dy":0.0025,"dx":0.0025,"nx":19,"ny":19,"refTime":"2026-03-26T03:00:00:Z","depth":"2","parameterNumber":2,"parameterNumberName":"U-component_of_CURRENTS"},"data":[0,0,0,-0.1809,-0.1811,-0.1922,-0.1922,-0.2117,-0.2118,0,0,0,0,0,0,0,0,0,0,0,-0.176,-0.176,-0.1809,-0.1811,-0.1921,-0.1922,-0.2117,-0.2118,0,0,0,0,0,0,0,0,0,0,0,-0.176,-0.176,-0.176,-0.1811,-0.1921,-0.1922,-0.2116,-0.2025,0,0,0,0,0,0,0,0,0,0,-0.1913,-0.1877,-0.176,-0.176,-0.1811,-0.1921,-0.1922,-0.202,-0.2031,-0.2074,0,-0.2066,0,-0.2093,-0.2131,-0.2131,0,0,0,-0.1835,-0.1868,-0.187,-0.176,-0.1812,-0.1921,-0.1878,-0.2026,-0.2038,-0.2088,-0.2069,-0.2076,-0.2096,-0.2132,-0.2133,-0.2324,-0.2325,0,0,-0.1828,-0.1818,-0.1861,-0.1876,-0.181,-0.1874,-0.1881,-0.2033,-0.205,-0.207,-0.2081,-0.2099,-0.2133,-0.2134,-0.2324,-0.2324,0,0,0,-0.1795,-0.1814,-0.1812,-0.1868,-0.1882,-0.1877,-0.1885,-0.2044,-0.2034,-0.2083,-0.2101,-0.2134,-0.2136,-0.2323,-0.2324,-0.2389,0,0,0,-0.1792,-0.1792,-0.1808,-0.1809,-0.1877,-0.1964,-0.1893,-0.2023,-0.2041,-0.21,-0.2134,-0.2138,-0.2322,-0.2323,-0.2385,-0.2416,0,0,0,-0.176,-0.1791,-0.1786,-0.1807,-0.1843,-0.1961,-0.1963,-0.2028,-0.2052,-0.2131,-0.2138,-0.2321,-0.2323,-0.2382,-0.2411,-0.2332,0,0,0,-0.1771,-0.1765,-0.1785,-0.1812,-0.1841,-0.1942,-0.1962,-0.207,-0.2142,-0.2135,-0.2322,-0.2324,-0.2381,-0.2408,-0.2331,-0.2221,-0.2218,0,0,-0.1767,-0.1765,-0.1785,-0.1805,-0.1887,-0.1931,-0.2092,-0.219,-0.2182,-0.2278,-0.2283,-0.2386,-0.2411,-0.2332,-0.2324,-0.2318,0,0,0,-0.1789,-0.1802,-0.1828,-0.189,-0.1958,-0.2083,-0.2197,-0.2233,-0.232,-0.2226,-0.2405,-0.2418,-0.2365,-0.2298,-0.2294,-0.2332,-0.2332,-0.2332,-0.2332,-0.1777,-0.1832,-0.1896,-0.1987,-0.2069,-0.2229,-0.2326,-0.2402,-0.2405,-0.244,-0.2485,-0.2493,-0.2427,-0.2421,-0.2498,-0.2498,-0.2499,-0.2499,-0.2499,-0.1809,-0.1848,-0.1963,-0.2041,-0.2176,-0.2317,-0.248,-0.2514,-0.2585,-0.2571,-0.2513,-0.239,-0.242,-0.2505,-0.2504,-0.2503,-0.2502,-0.2502,-0.2501,-0.1787,-0.1817,-0.1893,-0.2056,-0.2192,-0.2358,-0.2453,-0.2554,-0.2603,-0.2627,-0.2431,-0.2428,-0.2475,-0.254,-0.254,-0.254,-0.2539,-0.2539,-0.2539,-0.1727,-0.181,-0.1881,-0.2051,-0.2118,-0.2246,-0.24,-0.2449,-0.2462,-0.2491,-0.2488,-0.2504,-0.2503,-0.2476,-0.2537,-0.2537,-0.2537,-0.2538,-0.2538,-0.1699,-0.1737,-0.1827,-0.1893,-0.202,-0.2021,-0.2191,-0.2239,-0.2286,-0.2275,-0.2383,-0.2387,-0.2331,-0.2333,-0.2301,-0.2312,-0.2312,-0.2312,-0.2312,-0.1668,-0.1697,-0.1748,-0.1762,-0.1822,-0.1884,-0.1833,-0.1896,-0.2032,-0.2049,-0.2061,-0.2048,-0.2064,-0.1991,-0.2001,-0.1961,-0.1884,-0.1883,-0.1883,-0.1684,-0.1691,-0.1663,-0.1655,-0.1674,-0.1687,-0.1576,-0.1515,-0.1648,-0.1864,-0.1967,-0.2287,-0.2301,-0.2313,-0.2226,-0.2233,-0.2179,0,0]},{"header":{"parameterUnit":"m.s-1","parameterCategory":2,"la1":30.2992,"la2":30.254,"lo1":-89.0895,"lo2":-89.0443,"dy":0.0025,"dx":0.0025,"nx":19,"ny":19,"refTime":"2026-03-26T03:00:00:Z","depth":"2","parameterNumber":3,"parameterNumberName":"V-component_of_CURRENTS"},"data":[0,0,0,-0.0007,-0.0006,0.0045,0.0045,0.0218,0.0219,0,0,0,0,0,0,0,0,0,0,0,-0.0022,-0.0022,-0.0007,-0.0006,0.0045,0.0045,0.0217,0.0219,0,0,0,0,0,0,0,0,0,0,0,-0.0022,-0.0022,-0.0022,-0.0006,0.0045,0.0045,0.0217,0.0156,0,0,0,0,0,0,0,0,0,0,0.0096,0.0058,-0.0022,-0.0022,-0.0006,0.0045,0.0045,0.0153,0.016,0.0219,0,0.0212,0,0.0213,0.0231,0.0232,0,0,0,0.0013,0.0051,0.0062,-0.0022,-0.0006,0.0045,0.0027,0.0156,0.0165,0.0229,0.0215,0.022,0.0216,0.0232,0.0233,0.0385,0.0385,0,0,0.0011,-0.0001,0.0055,0.0067,-0.0008,0.0026,0.0029,0.0161,0.0168,0.0215,0.0224,0.0219,0.0234,0.0235,0.0384,0.0385,0,0,0,-0.0011,-0.0004,0.0002,0.0061,0.0058,0.0027,0.003,0.0162,0.0162,0.0226,0.0221,0.0235,0.0237,0.0384,0.0384,0.0272,0,0,0,-0.0011,-0.0017,0.0001,-0.0004,0.0054,0.0095,0.0029,0.0153,0.0168,0.022,0.0235,0.0239,0.0384,0.0384,0.0274,0.0194,0,0,0,-0.0022,-0.0018,-0.0019,-0.0005,0.0007,0.0092,0.0101,0.0156,0.0165,0.0232,0.0239,0.0383,0.0384,0.0276,0.0199,0.0141,0,0,0,-0.0025,-0.006,-0.0019,-0.0056,0.0006,0.0017,0.01,0.0131,0.0179,0.0236,0.0384,0.0384,0.0277,0.0203,0.0144,0.0184,0.017,0,0,-0.008,-0.0067,-0.0091,-0.0054,-0.009,0.0013,0.0033,0.0133,0.0219,0.0351,0.0354,0.0273,0.02,0.0141,0.0225,0.0209,0,0,0,-0.0116,-0.014,-0.0141,-0.0149,-0.0112,-0.0064,0.0051,0.0116,0.0223,0.0247,0.032,0.0277,0.0243,0.0277,0.0266,0.0388,0.0388,0.0388,0.0387,-0.0199,-0.0197,-0.0251,-0.0235,-0.0207,-0.0095,-0.0038,0.0086,0.0188,0.0224,0.0221,0.0144,0.0184,0.0174,0.028,0.028,0.0279,0.0279,0.0279,-0.032,-0.0365,-0.0344,-0.04,-0.0325,-0.0279,-0.0114,-0.0026,0.0077,0.0168,0.0141,0.0201,0.0154,0.0271,0.0272,0.0273,0.0274,0.0275,0.0275,-0.0385,-0.0415,-0.0447,-0.0527,-0.0513,-0.0404,-0.0367,-0.0219,-0.0065,-0.0058,0.0003,0.0006,0.0031,-0.0067,-0.0067,-0.0068,-0.0068,-0.0069,-0.0069,-0.0449,-0.0487,-0.0601,-0.0657,-0.0692,-0.0676,-0.0525,-0.0444,-0.0279,-0.013,-0.0128,0.0028,0.0039,0.0014,-0.0079,-0.0077,-0.0076,-0.0075,-0.0074,-0.0578,-0.06,-0.0775,-0.085,-0.0913,-0.0903,-0.0772,-0.0575,-0.0474,-0.0384,-0.0151,-0.0146,-0.0113,-0.01,-0.0126,-0.0249,-0.0249,-0.0249,-0.0249,-0.0682,-0.0699,-0.0935,-0.1042,-0.1094,-0.1,-0.0907,-0.0656,-0.0393,-0.024,-0.024,-0.014,-0.0132,-0.0094,-0.0081,-0.0103,-0.0222,-0.0222,-0.0222,-0.0826,-0.0876,-0.1044,-0.1117,-0.1153,-0.1082,-0.0964,-0.0643,-0.0268,-0.0222,-0.0252,-0.0244,-0.0091,-0.0082,-0.0011,0.0005,-0.0027,0,0]}],[{"header":{"parameterUnit":"m.s-1","parameterCategory":2,"la1":30.2992,"la2":30.254,"lo1":-89.0895,"lo2":-89.0443,"dy":0.0025,"dx":0.0025,"nx":19,"ny":19,"refTime":"2026-03-26T03:00:00:Z","depth":"4","parameterNumber":2,"parameterNumberName":"U-component_of_CURRENTS"},"data":[0,0,0,-0.1239,-0.1242,-0.1388,-0.1388,-0.1506,-0.1507,0,0,0,0,0,0,0,0,0,0,0,-0.1186,-0.1187,-0.1239,-0.1242,-0.1388,-0.1388,-0.1506,-0.1507,0,0,0,0,0,0,0,0,0,0,0,-0.1186,-0.1187,-0.1188,-0.1243,-0.1388,-0.1388,-0.1506,-0.1414,0,0,0,0,0,0,0,0,0,0,-0.1281,-0.1243,-0.1187,-0.1188,-0.1243,-0.1387,-0.1388,-0.141,-0.1419,-0.142,0,-0.1445,0,-0.1478,-0.1513,-0.1514,0,0,0,-0.1245,-0.1236,-0.1273,-0.1188,-0.1245,-0.1387,-0.1323,-0.1416,-0.1426,-0.1432,-0.1447,-0.1452,-0.148,-0.1514,-0.1514,-0.1629,-0.163,0,0,-0.1237,-0.1214,-0.1266,-0.128,-0.1285,-0.1318,-0.1327,-0.1423,-0.1434,-0.1448,-0.1456,-0.1482,-0.1515,-0.1515,-0.1629,-0.163,0,0,0,-0.1212,-0.1209,-0.1245,-0.1274,-0.1306,-0.1322,-0.1333,-0.143,-0.1442,-0.1457,-0.1483,-0.1515,-0.1516,-0.1628,-0.1629,-0.1638,0,0,0,-0.1207,-0.1194,-0.1242,-0.123,-0.1304,-0.138,-0.1337,-0.1436,-0.1448,-0.1483,-0.1515,-0.1517,-0.1628,-0.1629,-0.1636,-0.1648,0,0,0,-0.1179,-0.1191,-0.1208,-0.1228,-0.1291,-0.138,-0.1398,-0.1439,-0.1463,-0.1514,-0.1517,-0.1627,-0.1629,-0.1635,-0.1646,-0.1714,0,0,0,-0.115,-0.1179,-0.1208,-0.1252,-0.1289,-0.138,-0.1398,-0.147,-0.1515,-0.1516,-0.1628,-0.1629,-0.1635,-0.1644,-0.1712,-0.1516,0,0,0,-0.1166,-0.118,-0.1206,-0.1236,-0.1308,-0.136,-0.1447,-0.1509,-0.1535,-0.159,-0.1594,-0.1637,-0.1646,-0.1714,-0.1599,0,0,0,0,-0.1198,-0.1213,-0.1243,-0.1294,-0.1364,-0.1441,-0.1508,-0.1545,-0.1617,-0.157,-0.1663,-0.1669,-0.1711,-0.1591,-0.1636,-0.1636,-0.1635,-0.1635,-0.1635,-0.1173,-0.1217,-0.1263,-0.1329,-0.1394,-0.15,-0.1566,-0.1631,-0.1642,-0.1682,-0.1694,-0.1778,-0.165,-0.1712,-0.1712,-0.1712,-0.1712,-0.1712,-0.1712,-0.1172,-0.1188,-0.1266,-0.1325,-0.1418,-0.1498,-0.1627,-0.1661,-0.1764,-0.1742,-0.1783,-0.163,-0.1714,-0.1713,-0.1713,-0.1713,-0.1713,-0.1713,-0.1713,-0.1126,-0.1139,-0.1192,-0.1271,-0.1375,-0.1493,-0.1613,-0.1695,-0.1779,-0.1822,-0.1731,-0.181,-0.1791,-0.1855,-0.1855,-0.1856,-0.1856,-0.1856,-0.1857,-0.1042,-0.1097,-0.1113,-0.1215,-0.1271,-0.1395,-0.1606,-0.1702,-0.1805,-0.1741,-0.1843,-0.1827,-0.1822,-0.1802,-0.1862,-0.1861,-0.186,-0.186,-0.1859,-0.0957,-0.0977,-0.0985,-0.1026,-0.1166,-0.1264,-0.1499,-0.1659,-0.1755,-0.1751,-0.171,-0.1716,-0.1707,-0.1706,-0.168,-0.1707,-0.1705,-0.1702,0,-0.0869,-0.0889,-0.0865,-0.0897,-0.0998,-0.1176,-0.1319,-0.1484,-0.1577,-0.1499,-0.173,-0.1676,-0.168,-0.1662,-0.1658,-0.1622,0,0,0,-0.0789,-0.0791,-0.0741,-0.0791,-0.09,-0.1116,-0.1352,-0.1369,-0.1539,-0.1603,-0.1645,-0.166,-0.1817,-0.1879,-0.188,-0.1874,-0.1842,0,0]},{"header":{"parameterUnit":"m.s-1","parameterCategory":2,"la1":30.2992,"la2":30.254,"lo1":-89.0895,"lo2":-89.0443,"dy":0.0025,"dx":0.0025,"nx":19,"ny":19,"refTime":"2026-03-26T03:00:00:Z","depth":"4","parameterNumber":3,"parameterNumberName":"V-component_of_CURRENTS"},"data":[0,0,0,-0.0033,-0.0032,-0.0013,-0.0013,0.0033,0.0033,0,0,0,0,0,0,0,0,0,0,0,-0.0039,-0.0039,-0.0033,-0.0032,-0.0013,-0.0013,0.0032,0.0033,0,0,0,0,0,0,0,0,0,0,0,-0.0039,-0.0039,-0.0039,-0.0032,-0.0013,-0.0013,0.0032,0.0014,0,0,0,0,0,0,0,0,0,0,-0.0006,-0.0017,-0.0039,-0.0039,-0.0032,-0.0013,-0.0013,0.0013,0.0016,0.0027,0,0.0025,0,0.0027,0.0036,0.0036,0,0,0,-0.0025,-0.0019,-0.0016,-0.0039,-0.0032,-0.0013,-0.002,0.0015,0.0017,0.003,0.0025,0.0027,0.0028,0.0036,0.0036,0.0066,0.0066,0,0,-0.0026,-0.003,-0.0018,-0.0015,-0.0034,-0.002,-0.0019,0.0016,0.0018,0.0026,0.0028,0.0028,0.0036,0.0037,0.0066,0.0066,0,0,0,-0.0034,-0.0031,-0.0029,-0.0016,-0.0016,-0.002,-0.0018,0.0016,0.0016,0.0028,0.0029,0.0037,0.0037,0.0066,0.0066,-0.0012,0,0,0,-0.0034,-0.0037,-0.003,-0.0032,-0.0017,-0.0002,-0.0019,0.0013,0.0017,0.0029,0.0037,0.0037,0.0066,0.0066,-0.001,-0.007,0,0,0,-0.0039,-0.0037,-0.0037,-0.0032,-0.0028,-0.0003,-0.0001,0.0014,0.0017,0.0036,0.0038,0.0066,0.0066,-0.0008,-0.0066,-0.0064,0,0,0,-0.004,-0.0062,-0.0037,-0.0065,-0.0028,-0.0041,-0.0001,-0.0001,0.0009,0.0037,0.0066,0.0066,-0.0008,-0.0063,-0.0062,-0.0066,0,0,0,-0.0073,-0.0066,-0.0085,-0.0063,-0.0102,-0.0043,-0.0066,-0.003,0.0018,0.0057,0.0058,-0.0011,-0.0065,-0.0064,-0.0063,0,0,0,0,-0.01,-0.0117,-0.0123,-0.0138,-0.013,-0.0129,-0.0081,-0.0049,-0.0011,0.0024,0.0012,-0.002,-0.0016,-0.001,0.0066,0.0066,0.0066,0.0066,0.0066,-0.0146,-0.0156,-0.0202,-0.0213,-0.0216,-0.0181,-0.0171,-0.0114,-0.0053,-0.0038,-0.0066,-0.0099,-0.0094,-0.003,-0.0031,-0.0031,-0.0031,-0.0032,-0.0032,-0.0218,-0.025,-0.0269,-0.0316,-0.031,-0.0312,-0.0257,-0.021,-0.0166,-0.0111,-0.0102,-0.0072,-0.0039,-0.0037,-0.0036,-0.0036,-0.0035,-0.0035,-0.0034,-0.0249,-0.027,-0.0305,-0.0382,-0.0422,-0.0399,-0.0418,-0.0354,-0.0251,-0.0254,-0.0192,-0.0143,-0.0156,-0.0221,-0.0222,-0.0222,-0.0222,-0.0222,-0.0223,-0.026,-0.0302,-0.0381,-0.0452,-0.0508,-0.0544,-0.0511,-0.0467,-0.0362,-0.0294,-0.0263,-0.0162,-0.0156,-0.0165,-0.0227,-0.0226,-0.0225,-0.0225,-0.0225,-0.0293,-0.0317,-0.0439,-0.0513,-0.064,-0.0662,-0.0639,-0.0515,-0.0464,-0.0373,-0.0293,-0.0288,-0.0258,-0.0249,-0.0259,-0.0352,-0.0353,-0.0353,0,-0.0309,-0.0332,-0.0499,-0.0627,-0.0728,-0.0733,-0.0677,-0.0595,-0.0452,-0.0453,-0.0448,-0.0364,-0.0357,-0.0328,-0.032,-0.0337,0,0,0,-0.0338,-0.0388,-0.0506,-0.0642,-0.0764,-0.0701,-0.0658,-0.0605,-0.0488,-0.0403,-0.036,-0.0358,-0.0298,-0.0239,-0.018,-0.0173,-0.0183,0,0]}]]